Weather History for Kansas City International, MO

Change the Weather History Date:

Wednesday, November 7, 2012

  Actual Average Record
Temperature  
Mean Temperature 45 °F 48 °F  
Max Temperature 54 °F 58 °F 78 °F (1934)
Min Temperature 36 °F 38 °F 7 °F (1991)
Degree Days  
Heating Degree Days 20 17  
Month to date heating degree days 113 110  
Since 1 July heating degree days 515 470  
Cooling Degree Days 0 0  
Month to date cooling degree days 0 0  
Year to date cooling degree days 1834 1358  
Moisture  
Dew Point 30 °F    
Average Humidity 62    
Maximum Humidity 82    
Minimum Humidity 41    
Precipitation  
Precipitation 0.00 in 0.07 in 2.74 in (1918)
Month to date precipitation 0.20 0.56  
Year to date precipitation 19.78 35.74  
Snow  
Snow 0.00 in 0.00 in 2.50 in (1925)
Month to date snowfall 0.0 0.1  
Since 1 July snowfall 0.0 0.3  
Since 1 September snowfall 0.0 0.3  
Snow Depth 0.00 in    
Sea Level Pressure  
Sea Level Pressure 30.12 in    
Wind  
Wind Speed 7 mph (North)    
Max Wind Speed 13 mph    
Max Gust Speed 15 mph    
Visibility 10 miles    
Events      
T = Trace of Precipitation, MM = Missing Value Source: NWS Daily Summary

Daily Weather History Graph

Daily Weather History Graph

Search for Another Location

Airport:

Trip Planner

Search our weather history database for the weather conditions in past years. The results will help you decide how hot, cold, wet, or windy it might be!

Date:

Astronomy

Nov. 07, 2012 Rise Set
Actual Time 6:54 AM CST 5:10 PM CST
Civil Twilight 6:25 AM CST 5:38 PM CST
Nautical Twilight 5:53 AM CST 6:10 PM CST
Astronomical Twilight 5:22 AM CST 6:42 PM CST
Moon No Moon Rise 1:18 PM CST (11/7)
Length of Visible Light 11h 13m
Length of Day
10h 16m
Last Quarter, 43% of the Moon is Illuminated
Nov 7
Last Quarter
Nov 13
New
Nov 20
First Quarter
Nov 28
Full
Dec 6
Last Quarter

Hourly Weather History & Observations

Time (CST) Temp. Windchill Dew Point Humidity Pressure Visibility Wind Dir Wind Speed Gust Speed Precip Events Conditions
12:53 AM 41.0 °F 35.8 °F 28.9 °F 62% 30.07 in 10.0 mi NW 8.1 mph - N/A   Clear
1:53 AM 39.0 °F 33.4 °F 28.9 °F 67% 30.07 in 10.0 mi WNW 8.1 mph - N/A   Clear
2:53 AM 39.0 °F 33.4 °F 28.9 °F 67% 30.07 in 10.0 mi West 8.1 mph - N/A   Clear
3:53 AM 37.9 °F 32.1 °F 28.0 °F 68% 30.07 in 10.0 mi West 8.1 mph - N/A   Clear
4:53 AM 37.9 °F 32.1 °F 28.0 °F 68% 30.10 in 10.0 mi WNW 8.1 mph - N/A   Clear
5:53 AM 37.0 °F 30.4 °F 28.0 °F 70% 30.13 in 10.0 mi NW 9.2 mph - N/A   Clear
6:53 AM 36.0 °F 30.3 °F 28.0 °F 73% 30.14 in 10.0 mi NW 6.9 mph - N/A   Partly Cloudy
7:53 AM 39.0 °F 34.0 °F 30.0 °F 70% 30.17 in 10.0 mi NW 6.9 mph - N/A   Partly Cloudy
8:53 AM 43.0 °F 37.7 °F 30.9 °F 62% 30.18 in 10.0 mi NW 9.2 mph - N/A   Scattered Clouds
9:53 AM 46.9 °F - 32.0 °F 56% 30.19 in 10.0 mi North 9.2 mph - N/A   Scattered Clouds
10:53 AM 48.9 °F - 32.0 °F 52% 30.19 in 10.0 mi North 9.2 mph - N/A   Scattered Clouds
11:53 AM 51.1 °F - 30.9 °F 46% 30.17 in 10.0 mi NE 8.1 mph - N/A   Mostly Cloudy
12:53 PM 52.0 °F - 30.9 °F 45% 30.14 in 10.0 mi Variable 6.9 mph - N/A   Mostly Cloudy
1:53 PM 53.1 °F - 30.9 °F 43% 30.12 in 10.0 mi Variable 3.5 mph - N/A   Mostly Cloudy
2:53 PM 53.1 °F - 30.9 °F 43% 30.11 in 10.0 mi Calm Calm - N/A   Mostly Cloudy
3:53 PM 53.1 °F - 30.9 °F 43% 30.11 in 10.0 mi Variable 3.5 mph - N/A   Mostly Cloudy
4:53 PM 50.0 °F - 30.9 °F 48% 30.11 in 10.0 mi ESE 3.5 mph - N/A   Scattered Clouds
5:53 PM 48.9 °F - 30.9 °F 50% 30.11 in 10.0 mi East 6.9 mph - N/A   Scattered Clouds
6:53 PM 45.0 °F 41.8 °F 30.9 °F 58% 30.12 in 10.0 mi ESE 5.8 mph - N/A   Clear
7:53 PM 42.1 °F 37.7 °F 30.9 °F 65% 30.11 in 10.0 mi SE 6.9 mph - N/A   Clear
8:53 PM 39.9 °F 34.5 °F 32.0 °F 73% 30.12 in 10.0 mi SE 8.1 mph - N/A   Clear
9:53 PM 39.9 °F 34.5 °F 32.0 °F 73% 30.12 in 10.0 mi SE 8.1 mph - N/A   Clear
10:53 PM 37.9 °F 32.1 °F 32.0 °F 79% 30.12 in 10.0 mi SSE 8.1 mph - N/A   Clear
11:53 PM 39.9 °F 33.4 °F 32.0 °F 73% 30.12 in 10.0 mi SSE 10.4 mph - N/A   Clear